Location: Unspecified
(0.0000°N, 0.0000°E)
Time: 03:33:15
(UTC+02:00)

Iridium 39 - Visible Passes

Search period start: 20 June 2018 00:00
Search period end: 30 June 2018 00:00
Orbit: 724 x 752 km, 86.4° (Epoch: 19 June)

Date Brightness Start Highest point End Pass type
(mag) Time Alt. Az. Time Alt. Az. Time Alt. Az.
23 Jun 8.4 22:25:02 13° NNE 22:25:02 13° NNE 22:25:32 10° N visible
24 Jun 9.0 23:18:55 10° NW 23:18:55 10° NW 23:18:57 10° NW visible
25 Jun 7.9 22:33:09 22° N 22:33:09 22° N 22:34:55 10° N visible
26 Jun 7.5 21:47:21 21° NE 21:47:21 21° NE 21:49:15 10° NNE visible
27 Jun 7.7 22:41:03 29° NW 22:41:03 29° NW 22:43:53 10° NNW visible
28 Jun 6.3 21:55:08 50° NE 21:55:08 50° NE 21:59:02 10° N visible
29 Jun 7.3 21:09:07 19° E 21:09:07 19° E 21:12:28 10° NE visible
29 Jun 8.1 22:48:41 22° W 22:48:41 22° W 22:52:20 10° NW visible
